Location: Unspecified
(0.0000°N, 0.0000°E)
Time: 00:17:11
(UTC+00:00)

deb Kosmos-1275 - Pass Details

Date: 12 March 2026
Orbit: 924 x 993 km, 82.9° (Epoch: 14 April)

Event Time Altitude Azimuth Distance (km) Brightness Sun altitude
Rises 18:39:26 0° 346° (NNW) 3,622 ? -7.4°
Reaches altitude 10° 18:41:58 10° 341° (NNW) 2,689 ? -8.1°
Maximum altitude 18:47:54 50° 267° (W) 1,218 ? -9.5°
Drops below altitude 10° 18:53:57 10° 193° (SSW) 2,740 ? -11.1°
Sets 18:56:35 0° 187° (S) 3,697 ? -11.7°
